| time (UTC) | temp C | wind direction | speed KPH | gust KPH | rain 1hr cm | rain 24hr cm | rain mn cm | humidity % | barometer mb |
| 20260503003834 | 12 | 354 | 0.0 | 3.2 | 0.00 | 1.24 | 0.00 | 98 | 1014.1 |
| 20260503002836 | 12 | 343 | 0.0 | 0.0 | 0.00 | 1.24 | 0.00 | 98 | 1014.1 |
| 20260503001833 | 12 | 341 | 0.0 | 3.2 | 0.00 | 1.24 | 0.00 | 98 | 1014.3 |
| 20260503001334 | 12 | 312 | 0.0 | 1.6 | 0.00 | 1.24 | 0.00 | 98 | 1014.3 |
| 20260502235835 | 12 | 312 | 0.0 | 0.0 | 0.00 | 1.24 | 0.00 | 97 | 1014.5 |
| 20260502235333 | 12 | 312 | 0.0 | 0.0 | 0.00 | 1.24 | 0.00 | 97 | 1014.5 |
| 20260502234333 | 12 | 312 | 0.0 | 0.0 | 0.00 | 1.24 | 0.00 | 98 | 1014.5 |
| 20260502232843 | 12 | 311 | 0.0 | 0.0 | 0.00 | 1.24 | 0.00 | 98 | 1014.6 |
| 20260502231837 | 12 | 311 | 0.0 | 3.2 | 0.00 | 1.24 | 0.00 | 97 | 1014.7 |
| 20260502231334 | 12 | 311 | 0.0 | 3.2 | 0.00 | 1.24 | 0.00 | 97 | 1014.7 |
| 20260502230833 | 12 | 311 | 0.0 | 0.0 | 0.00 | 1.24 | 0.00 | 97 | 1014.8 |
| 20260502230334 | 12 | 311 | 0.0 | 3.2 | 0.00 | 1.24 | 0.00 | 98 | 1014.8 |
| 20260502224833 | 12 | 311 | 0.0 | 4.8 | 0.00 | 1.24 | 0.00 | 97 | 1014.9 |
| 20260502224333 | 12 | 309 | 0.0 | 0.0 | 0.00 | 1.24 | 0.00 | 97 | 1014.9 |
| 20260502223833 | 12 | 309 | 0.0 | 1.6 | 0.00 | 1.24 | 0.00 | 97 | 1014.9 |
| 20260502222834 | 12 | 79 | 0.0 | 3.2 | 0.00 | 1.24 | 0.00 | 97 | 1014.9 |
| 20260502222333 | 12 | 77 | 0.0 | 0.0 | 0.00 | 1.24 | 0.00 | 97 | 1015.0 |
| 20260502221833 | 12 | 77 | 0.0 | 0.0 | 0.00 | 1.24 | 0.00 | 97 | 1015.0 |
| 20260502221333 | 12 | 77 | 0.0 | 0.0 | 0.00 | 1.24 | 0.00 | 97 | 1015.0 |
| 20260502220833 | 12 | 77 | 1.6 | 3.2 | 0.00 | 1.24 | 0.00 | 97 | 1015.1 |
| 20260502215836 | 13 | 77 | 3.2 | 3.2 | 0.00 | 1.24 | 0.00 | 97 | 1015.1 |
| 20260502214334 | 13 | 79 | 3.2 | 8.0 | 0.00 | 1.24 | 1.24 | 97 | 1015.2 |
| 20260502213833 | 13 | 59 | 3.2 | 8.0 | 0.00 | 1.24 | 1.24 | 97 | 1015.3 |
| 20260502213334 | 13 | 76 | 3.2 | 4.8 | 0.00 | 1.24 | 1.24 | 97 | 1015.3 |
| 20260502212835 | 13 | 68 | 3.2 | 4.8 | 0.00 | 1.24 | 1.24 | 97 | 1015.3 |
| 20260502212334 | 13 | 52 | 3.2 | 8.0 | 0.00 | 1.24 | 1.24 | 97 | 1015.3 |
| 20260502210833 | 13 | 85 | 1.6 | 3.2 | 0.00 | 1.24 | 1.24 | 97 | 1015.3 |
| 20260502204833 | 13 | 69 | 0.0 | 0.0 | 0.00 | 1.24 | 1.24 | 97 | 1015.4 |
| 20260502204333 | 13 | 69 | 0.0 | 0.0 | 0.00 | 1.24 | 1.24 | 97 | 1015.4 |
| 20260502203333 | 13 | 69 | 0.0 | 0.0 | 0.00 | 1.24 | 1.24 | 97 | 1015.5 |
| 20260502202333 | 13 | 70 | 0.0 | 3.2 | 0.00 | 1.24 | 1.24 | 97 | 1015.6 |
| 20260502200333 | 14 | 70 | 0.0 | 4.8 | 0.00 | 1.24 | 1.24 | 96 | 1015.6 |
| 20260502195834 | 14 | 187 | 1.6 | 3.2 | 0.00 | 1.24 | 1.24 | 96 | 1015.6 |
| 20260502195332 | 14 | 187 | 1.6 | 1.6 | 0.00 | 1.24 | 1.24 | 96 | 1015.7 |
| 20260502192334 | 15 | 274 | 0.0 | 0.0 | 0.00 | 1.24 | 1.24 | 96 | 1015.7 |
| 20260502191833 | 15 | 274 | 3.2 | 1.6 | 0.00 | 1.24 | 1.24 | 96 | 1015.7 |
| 20260502190333 | 15 | 34 | 0.0 | 0.0 | 0.00 | 1.24 | 1.24 | 96 | 1015.7 |
| 20260502185333 | 15 | 35 | 0.0 | 4.8 | 0.00 | 1.24 | 1.24 | 96 | 1015.8 |
| 20260502183833 | 15 | 85 | 0.0 | 4.8 | 0.05 | 1.24 | 1.24 | 95 | 1016.0 |
| 20260502182333 | 15 | 314 | 0.0 | 0.0 | 0.05 | 1.24 | 1.24 | 95 | 1016.0 |
| 20260502181334 | 15 | 314 | 0.0 | 0.0 | 0.05 | 1.24 | 1.24 | 95 | 1016.0 |
| 20260502180333 | 15 | 353 | 0.0 | 3.2 | 0.05 | 1.24 | 1.24 | 95 | 1015.8 |
| 20260502170333 | 15 | 91 | 1.6 | 3.2 | 1.04 | 1.19 | 1.19 | 90 | 1016.1 |
| 20260502164333 | 17 | 10 | 12.9 | 48.3 | 0.99 | 1.09 | 1.09 | 80 | 1017.9 |
| 20260502163333 | 20 | 154 | 0.0 | 9.7 | 0.10 | 0.20 | 0.20 | 82 | 1015.4 |
| 20260502162836 | 20 | 93 | 3.2 | 3.2 | 0.10 | 0.20 | 0.20 | 82 | 1015.4 |
| 20260502161333 | 21 | 95 | 3.2 | 9.7 | 0.10 | 0.20 | 0.20 | 75 | 1015.9 |
| 20260502160833 | 22 | 60 | 3.2 | 14.5 | 0.10 | 0.20 | 0.20 | 68 | 1016.1 |
| 20260502152333 | 23 | 10 | 4.8 | 8.0 | 0.00 | 0.10 | 0.10 | 50 | 1016.6 |
| 20260502151334 | 23 | 322 | 8.0 | 11.3 | 0.00 | 0.10 | 0.10 | 52 | 1016.6 |
| 20260502150833 | 23 | 292 | 4.8 | 19.3 | 0.00 | 0.10 | 0.10 | 52 | 1016.6 |
| 20260502150332 | 23 | 239 | 3.2 | 22.5 | 0.00 | 0.10 | 0.10 | 56 | 1016.6 |
| 20260502115834 | 20 | 62 | 1.6 | 4.8 | 0.10 | 0.10 | 0.10 | 82 | 1018.9 |
| 20260502115333 | 20 | 62 | 1.6 | 8.0 | 0.10 | 0.10 | 0.10 | 82 | 1019.1 |
| 20260502114832 | 20 | 64 | 3.2 | 8.0 | 0.10 | 0.10 | 0.10 | 82 | 1019.1 |
| 20260502113833 | 20 | 194 | 4.8 | 8.0 | 0.10 | 0.10 | 0.10 | 77 | 1019.3 |
| 20260502113333 | 20 | 254 | 4.8 | 9.7 | 0.10 | 0.10 | 0.10 | 72 | 1019.3 |
| 20260502112834 | 20 | 277 | 8.0 | 9.7 | 0.10 | 0.10 | 0.10 | 72 | 1019.3 |
| 20260502112333 | 21 | 293 | 9.7 | 11.3 | 0.10 | 0.10 | 0.10 | 66 | 1019.2 |
| 20260502111834 | 22 | 284 | 8.0 | 16.1 | 0.08 | 0.08 | 0.08 | 61 | 1019.2 |
| 20260502111333 | 22 | 268 | 8.0 | 27.4 | 0.05 | 0.05 | 0.05 | 58 | 1019.2 |
| 20260502110832 | 23 | 275 | 4.8 | 14.5 | 0.00 | 0.00 | 0.00 | 50 | 1019.1 |
| 20260502110334 | 23 | 295 | 4.8 | 9.7 | 0.00 | 0.00 | 0.00 | 48 | 1019.1 |
| 20260502105834 | 23 | 227 | 6.4 | 11.3 | 0.00 | 0.00 | 0.00 | 49 | 1019.1 |
| 20260502105333 | 23 | 256 | 8.0 | 9.7 | 0.00 | 0.00 | 0.00 | 48 | 1019.4 |
| 20260502104833 | 23 | 186 | 9.7 | 12.9 | 0.00 | 0.00 | 0.00 | 51 | 1019.4 |
| 20260502103333 | 22 | 175 | 12.9 | 20.9 | 0.00 | 0.00 | 0.00 | 50 | 1019.7 |
| 20260502102333 | 22 | 193 | 9.7 | 25.7 | 0.00 | 0.00 | 0.00 | 51 | 1019.9 |
| 20260502100833 | 22 | 192 | 9.7 | 20.9 | 0.00 | 0.00 | 0.00 | 51 | 1020.0 |
| 20260502091333 | 21 | 243 | 11.3 | 14.5 | 0.00 | 0.00 | 0.00 | 56 | 1020.3 |
| 20260502090832 | 20 | 201 | 9.7 | 16.1 | 0.00 | 0.00 | 0.00 | 57 | 1020.3 |
| 20260502090332 | 20 | 219 | 9.7 | 19.3 | 0.00 | 0.00 | 0.00 | 55 | 1020.3 |
| 20260502071333 | 18 | 242 | 8.0 | 12.9 | 0.00 | 0.00 | 0.00 | 56 | 1020.5 |
| 20260502065332 | 18 | 154 | 8.0 | 12.9 | 0.00 | 0.00 | 0.00 | 55 | 1020.8 |
| 20260502064832 | 18 | 177 | 8.0 | 12.9 | 0.00 | 0.00 | 0.00 | 55 | 1020.8 |
| 20260502064333 | 18 | 165 | 8.0 | 14.5 | 0.00 | 0.00 | 0.00 | 55 | 1020.8 |
| 20260502063333 | 17 | 168 | 8.0 | 11.3 | 0.00 | 0.00 | 0.00 | 54 | 1020.9 |
| 20260502061832 | 17 | 183 | 8.0 | 12.9 | 0.00 | 0.00 | 0.00 | 54 | 1021.0 |
| 20260502054832 | 16 | 164 | 4.8 | 12.9 | 0.00 | 0.00 | 0.00 | 54 | 1020.9 |
| 20260502054333 | 16 | 195 | 4.8 | 11.3 | 0.00 | 0.00 | 0.00 | 52 | 1020.9 |
| 20260502051832 | 16 | 184 | 8.0 | 14.5 | 0.00 | 0.00 | 0.00 | 46 | 1020.9 |
| 20260502051333 | 16 | 189 | 8.0 | 11.3 | 0.00 | 0.00 | 0.00 | 46 | 1020.9 |
| 20260502050833 | 16 | 171 | 4.8 | 9.7 | 0.00 | 0.00 | 0.00 | 46 | 1020.8 |
| 20260502044333 | 15 | 188 | 4.8 | 11.3 | 0.00 | 0.00 | 0.00 | 48 | 1020.8 |
| 20260502043833 | 15 | 185 | 6.4 | 12.9 | 0.00 | 0.00 | 0.00 | 48 | 1020.6 |
| 20260502035332 | 15 | 169 | 8.0 | 12.9 | 0.00 | 0.00 | 0.00 | 45 | 1021.0 |
| 20260502033839 | 12 | 198 | 3.2 | 14.5 | 0.00 | 0.00 | 0.00 | 60 | 1020.7 |
| 20260502032834 | 8 | 252 | 1.6 | 8.0 | 0.00 | 0.00 | 0.00 | 80 | 1020.7 |
| 20260502032332 | 8 | 24 | 0.0 | 4.8 | 0.00 | 0.00 | 0.00 | 81 | 1020.7 |
| 20260502031832 | 8 | 339 | 0.0 | 3.2 | 0.00 | 0.00 | 0.00 | 81 | 1020.7 |
| 20260502031332 | 7 | 339 | 0.0 | 3.2 | 0.00 | 0.00 | 0.00 | 81 | 1020.7 |
| 20260502025332 | 7 | 339 | 0.0 | 0.0 | 0.00 | 0.00 | 0.00 | 83 | 1021.0 |
| 20260502024333 | 7 | 340 | 1.6 | 3.2 | 0.00 | 0.00 | 0.00 | 85 | 1021.0 |
| 20260502022332 | 6 | 346 | 0.0 | 3.2 | 0.00 | 0.00 | 0.00 | 85 | 1021.1 |
| 20260502020832 | 6 | 346 | 0.0 | 0.0 | 0.00 | 0.00 | 0.00 | 85 | 1021.1 |
| 20260502015833 | 6 | 346 | 1.6 | 3.2 | 0.00 | 0.00 | 0.00 | 86 | 1021.1 |
| 20260502015333 | 6 | 346 | 1.6 | 3.2 | 0.00 | 0.00 | 0.00 | 87 | 1021.4 |
| 20260502014333 | 5 | 352 | 0.0 | 8.0 | 0.00 | 0.00 | 0.00 | 88 | 1021.4 |
| 20260502012332 | 5 | 28 | 0.0 | 3.2 | 0.00 | 0.00 | 0.00 | 88 | 1021.5 |
| 20260502011832 | 5 | 28 | 0.0 | 3.2 | 0.00 | 0.00 | 0.00 | 89 | 1021.5 |
| 20260502011333 | 5 | 326 | 0.0 | 4.8 | 0.00 | 0.00 | 0.00 | 88 | 1021.5 |
| 20260502005337 | 3 | 224 | 0.0 | 0.0 | 0.00 | 0.00 | 0.00 | 86 | 1021.6 |